TimeAKDT,TemperatureF,Dew PointF,Humidity,Sea Level PressureIn,VisibilityMPH,Wind Direction,Wind SpeedMPH,Gust SpeedMPH,PrecipitationIn,Events,Conditions,WindDirDegrees,DateUTC
12:53 AM,37.0,33.1,86,30.02,10.0,North,3.5,-,N/A,,Mostly Cloudy,360,2013-09-14 08:53:00
1:51 AM,37.4,33.8,87,30.03,10.0,Calm,Calm,-,N/A,,Overcast,0,2013-09-14 09:51:00
1:53 AM,37.9,34.0,86,30.03,10.0,North,3.5,-,N/A,,Overcast,10,2013-09-14 09:53:00
2:49 AM,37.4,33.8,87,30.04,10.0,North,3.5,-,N/A,,Overcast,350,2013-09-14 10:49:00
2:53 AM,37.9,34.0,86,30.04,10.0,North,3.5,-,N/A,,Overcast,350,2013-09-14 10:53:00
3:53 AM,39.0,34.0,82,30.05,10.0,Calm,Calm,-,N/A,,Overcast,0,2013-09-14 11:53:00
4:53 AM,37.0,33.1,86,30.06,10.0,North,5.8,-,N/A,,Mostly Cloudy,360,2013-09-14 12:53:00
5:53 AM,39.0,34.0,82,30.07,10.0,Calm,Calm,-,N/A,,Overcast,0,2013-09-14 13:53:00
6:53 AM,37.9,35.1,89,30.08,10.0,Calm,Calm,-,N/A,,Scattered Clouds,0,2013-09-14 14:53:00
7:53 AM,35.1,33.1,92,30.09,10.0,Calm,Calm,-,N/A,,Mostly Cloudy,0,2013-09-14 15:53:00
8:53 AM,34.0,32.0,92,30.10,10.0,Calm,Calm,-,N/A,,Mostly Cloudy,0,2013-09-14 16:53:00
9:51 AM,35.6,33.8,93,30.11,10.0,NNE,4.6,-,N/A,,Mostly Cloudy,20,2013-09-14 17:51:00
9:53 AM,37.0,34.0,89,30.11,10.0,North,3.5,-,N/A,,Mostly Cloudy,10,2013-09-14 17:53:00
10:53 AM,41.0,37.0,86,30.12,10.0,NNE,3.5,-,N/A,,Overcast,20,2013-09-14 18:53:00
11:53 AM,43.0,36.0,76,30.12,10.0,ENE,4.6,-,N/A,,Overcast,60,2013-09-14 19:53:00
12:53 PM,44.1,36.0,73,30.14,10.0,East,8.1,-,N/A,,Overcast,80,2013-09-14 20:53:00
1:00 PM,44.6,37.4,76,30.13,10.0,East,8.1,-,N/A,,Overcast,80,2013-09-14 21:00:00
1:46 PM,44.6,37.4,76,30.13,10.0,East,9.2,-,N/A,,Overcast,90,2013-09-14 21:46:00
1:53 PM,44.1,37.0,76,30.14,10.0,East,9.2,-,N/A,,Overcast,80,2013-09-14 21:53:00
2:09 PM,44.6,37.4,76,30.13,10.0,East,8.1,-,N/A,,Overcast,80,2013-09-14 22:09:00
2:22 PM,44.6,37.4,76,30.14,10.0,East,8.1,-,N/A,,Overcast,80,2013-09-14 22:22:00
2:53 PM,45.0,39.0,80,30.14,10.0,East,9.2,-,N/A,,Overcast,90,2013-09-14 22:53:00
3:53 PM,46.0,39.9,79,30.14,10.0,East,9.2,-,N/A,,Overcast,100,2013-09-14 23:53:00
4:53 PM,45.0,43.0,93,30.14,7.0,East,9.2,-,N/A,,Overcast,90,2013-09-15 00:53:00
5:53 PM,45.0,43.0,93,30.12,10.0,East,9.2,-,N/A,,Overcast,80,2013-09-15 01:53:00
6:53 PM,45.0,42.1,90,30.13,8.0,East,8.1,-,N/A,,Overcast,80,2013-09-15 02:53:00
7:53 PM,45.0,43.0,93,30.13,2.5,ENE,8.1,-,N/A,,Overcast,70,2013-09-15 03:53:00
8:53 PM,44.1,43.0,96,30.13,1.8,ENE,9.2,-,0.01,,Light Drizzle,70,2013-09-15 04:53:00
9:57 PM,44.6,42.8,93,30.14,3.0,ENE,9.2,-,N/A,,Overcast,70,2013-09-15 05:57:00
10:39 PM,44.6,42.8,93,30.13,8.0,East,9.2,-,N/A,,Overcast,80,2013-09-15 06:39:00
10:53 PM,44.1,43.0,96,30.13,10.0,ENE,9.2,-,N/A,,Overcast,70,2013-09-15 06:53:00
11:53 PM,45.0,42.1,90,30.15,10.0,ENE,9.2,-,N/A,,Overcast,70,2013-09-15 07:53:00